This is the latest recevied weather packets stored in our database for station/object W6SNO-1. If no packets are shown the sender has not sent any weather packets the latest 1 day(s).
| Time | Temp. | Humidity | Pressure | Rain* | Wind** | Luminosity | Snow |
|---|---|---|---|---|---|---|---|
| 1778002810 | 13.89° C | 72% | 1016.3 hPa | 0 mm | 0.45 m/s, 344° | 110 W/m² | - |
| 1778002507 | 13.89° C | 71% | 1015.9 hPa | 0 mm | 0 m/s | 117 W/m² | - |
| 1778002204 | 13.89° C | 71% | 1016.1 hPa | 0 mm | 0 m/s | 135 W/m² | - |
| 1778001903 | 13.89° C | 71% | 1015.8 hPa | 0 mm | 0.45 m/s, 348° | 143 W/m² | - |
| 1778001603 | 13.33° C | 72% | 1016 hPa | 0 mm | 0 m/s | 126 W/m² | - |
| 1778001298 | 13.33° C | 72% | 1016 hPa | 0 mm | 0 m/s | 126 W/m² | - |
| 1778000995 | 13.33° C | 73% | 1016 hPa | 0 mm | 0 m/s | 125 W/m² | - |
| 1778000692 | 13.33° C | 73% | 1016 hPa | 0 mm | 0 m/s | 124 W/m² | - |
| 1778000388 | 13.33° C | 74% | 1016 hPa | 0 mm | 0.89 m/s, 352° | 122 W/m² | - |
| 1778000084 | 13.33° C | 73% | 1015.7 hPa | 0 mm | 0.45 m/s, 355° | 128 W/m² | - |
| 1777999779 | 13.33° C | 72% | 1015.9 hPa | 0 mm | 0.45 m/s, 341° | 133 W/m² | - |
| 1777999476 | 13.33° C | 73% | 1015.7 hPa | 0 mm | 0 m/s | 151 W/m² | - |
| 1777999174 | 13.89° C | 74% | 1015.8 hPa | 0 mm | 0.45 m/s, 349° | 161 W/m² | - |
| 1777998873 | 13.33° C | 74% | 1015.8 hPa | 0 mm | 0.45 m/s, 0° | 180 W/m² | - |
| 1777998571 | 13.33° C | 74% | 1015.6 hPa | 0 mm | 0.45 m/s, 356° | 189 W/m² | - |
| 1777998267 | 13.33° C | 75% | 1015.8 hPa | 0 mm | 0 m/s | 160 W/m² | - |
| 1777997964 | 13.33° C | 75% | 1015.9 hPa | 0 mm | 0 m/s | 143 W/m² | - |
| 1777997660 | 13.33° C | 75% | 1015.6 hPa | 0 mm | 0 m/s | 142 W/m² | - |
| 1777997358 | 13.33° C | 75% | 1016 hPa | 0 mm | 0 m/s | 122 W/m² | - |
| 1777996752 | 12.78° C | 76% | 1015.6 hPa | 0 mm | 0 m/s | 89 W/m² | - |
| 1777996449 | 12.78° C | 76% | 1015.8 hPa | 0 mm | 0 m/s | 89 W/m² | - |
| 1777996146 | 12.78° C | 76% | 1015.7 hPa | 0 mm | 0 m/s | 91 W/m² | - |
| 1777995841 | 12.78° C | 77% | 1015.7 hPa | 0 mm | 0 m/s | 117 W/m² | - |
| 1777995538 | 12.22° C | 77% | 1015.6 hPa | 0 mm | 0 m/s | 99 W/m² | - |
| 1777995235 | 12.22° C | 77% | 1015.6 hPa | 0 mm | 0 m/s | 99 W/m² | - |
* Rain latest hour (hover to see other rain measurements)
** Current wind speed in m/s (hover to see current wind gust speed)